Weather reports worldwide

Advertisment
Toulouse/Blagnac, France (7630): temperature & dewpoint: 19.09.2018 12:00:00 - 25.09.2018 12:00:00 (CEST)Toulouse/Blagnac, France (7630): temperature 5cm: 19.09.2018 12:00:00 - 25.09.2018 12:00:00 (CEST)Toulouse/Blagnac, France (7630): temperature -20cm & temperature -100cm: 19.09.2018 12:00:00 - 25.09.2018 12:00:00 (CEST)Toulouse/Blagnac, France (7630): wind speed & gusts: 19.09.2018 12:00:00 - 25.09.2018 12:00:00 (CEST)Toulouse/Blagnac, France (7630): wind direction: 19.09.2018 12:00:00 - 25.09.2018 12:00:00 (CEST)Toulouse/Blagnac, France (7630): reduced air pressure: 19.09.2018 12:00:00 - 25.09.2018 12:00:00 (CEST)Toulouse/Blagnac, France (7630): visibility: 19.09.2018 12:00:00 - 25.09.2018 12:00:00 (CEST)Toulouse/Blagnac, France (7630): sunshine duration: 19.09.2018 12:00:00 - 25.09.2018 12:00:00 (CEST)Toulouse/Blagnac, France (7630): precipitation: 19.09.2018 12:00:00 - 25.09.2018 12:00:00 (CEST)
Date & Time tt [°C] td [°C] tt 5cm [°C] tt -20cm [°C] tt -100cm [°C] ff [km/h] ff [kn] fx [km/h] fx [kn] dd ppp [hPa] vv [km] sd [min] rr [mm]
25.09.2018 12:00:00 17,0 5,3 23,9 19,3 21,0 7 4 17 9 WSW 1028,5 57 60 0,0
25.09.2018 11:00:00 15,2 5,4 20,1 19,3 21,0 8 4 14 8 S 1028,8 42 60 0,0
25.09.2018 10:00:00 12,4 5,3 15,5 19,4 21,0 5 3 11 6 S 1028,6 36 60 0,0
25.09.2018 09:00:00 10,3 4,9 4,5 19,6 21,0 4 2 10 6 W 1028,6 14 54 0,0
25.09.2018 08:00:00 8,1 4,5 3,6 19,8 21,0 0 0 13 7 N 1028,5 52 0 0,0
25.09.2018 07:00:00 8,8 4,8 4,6 19,9 21,0 4 2 10 5 WNW 1028,2 60 0 0,0
25.09.2018 06:00:00 9,4 4,8 5,1 20,1 21,0 3 2 10 5 NW 1028,2 60 0 0,0
25.09.2018 05:00:00 9,2 5,2 4,6 20,3 21,0 4 2 11 6 SSW 1028,3 60 0 0,0
25.09.2018 04:00:00 10,0 5,0 5,3 20,5 21,0 5 3 18 10 SSW 1028,5 60 0 0,0
25.09.2018 03:00:00 11,5 4,9 9,4 20,6 21,0 11 6 15 8 NW 1028,8 60 0 0,0
25.09.2018 02:00:00 12,1 5,0 9,9 20,8 21,0 11 6 18 10 NW 1028,8 59 0 0,0
25.09.2018 01:00:00 12,9 5,6 11,0 21,0 21,0 12 6 18 10 NW 1029,0 34 0 0,0
25.09.2018 00:00:00 13,3 5,9 11,5 21,1 21,0 11 6 23 13 NNW 1029,0 60 0 0,0
24.09.2018 23:00:00 14,6 5,9 13,3 21,3 21,0 16 9 27 14 WNW 1029,0 60 0 0,0
24.09.2018 22:00:00 16,0 5,9 14,5 21,4 21,0 21 11 29 16 W 1028,7 60 0 0,0
24.09.2018 21:00:00 16,7 5,3 14,9 21,5 21,0 16 9 22 12 W 1028,6 60 0 0,0
24.09.2018 20:00:00 17,5 5,1 15,9 21,6 21,0 15 8 32 17 WNW 1028,2 60 27 0,0
24.09.2018 19:00:00 19,3 5,0 20,9 21,6 21,0 23 13 40 21 NW 1027,5 45 60 0,0
24.09.2018 18:00:00 20,4 5,2 23,8 21,6 21,0 27 15 44 24 NNW 1027,2 26 60 0,0
24.09.2018 17:00:00 20,6 5,8 23,3 21,6 21,0 29 16 44 24 NW 1027,3 19 60 0,0
24.09.2018 16:00:00 20,2 6,2 25,9 21,6 21,0 28 15 45 25 NW 1027,7 37 60 0,0
24.09.2018 15:00:00 20,5 8,8 20,5 21,6 21,0 26 14 40 21 WNW 1027,9 59 34 0,0
24.09.2018 14:00:00 18,6 9,6 20,2 21,6 21,0 22 12 61 33 WNW 1028,4 42 34 0,0
24.09.2018 13:00:00 18,5 10,3 20,3 21,7 21,0 27 14 41 22 NW 1028,4 39 57 0,0
24.09.2018 12:00:00 17,0 10,6 19,4 21,8 21,0 23 12 37 20 NW 1028,7 50 55 0,0
24.09.2018 11:00:00 15,6 11,2 15,9 21,9 21,0 22 12 45 24 NW 1028,5 60 45 0,0
24.09.2018 10:00:00 14,6 11,4 15,2 22,1 21,0 29 16 43 23 NNW 1027,7 55 2 0,0
24.09.2018 09:00:00 15,7 13,7 15,6 22,2 21,0 29 15 37 20 NW 1026,9 60 0 0,0
24.09.2018 08:00:00 16,5 14,5 16,1 22,3 21,0 22 12 37 20 NW 1025,8 60 0 0,0
24.09.2018 07:00:00 17,2 15,5 16,7 22,4 21,0 25 13 34 19 NNW 1025,3 60 0 0,0
24.09.2018 06:00:00 18,0 16,8 17,4 22,5 21,0 20 11 29 16 NNW 1024,7 15 0 0,0
24.09.2018 05:00:00 18,8 17,6 18,0 22,6 21,0 18 10 40 21 NW 1024,3 60 0 1,8
24.09.2018 04:00:00 19,5 18,5 18,9 22,6 21,0 18 10 31 17 W 1024,0 3,3 0 0,4
24.09.2018 03:00:00 19,9 17,7 18,8 22,7 21,0 19 10 39 21 W 1024,5 19 0 0,0
24.09.2018 02:00:00 20,9 16,7 20,3 22,8 21,0 19 11 34 18 W 1024,2 19 0 0,0
24.09.2018 01:00:00 21,3 16,5 20,7 22,9 21,0 21 11 35 19 W 1024,3 36 0 0,0
24.09.2018 00:00:00 21,5 16,2 20,6 23,0 21,0 23 12 36 20 W 1024,7 40 0 0,0
23.09.2018 23:00:00 22,2 16,5 21,3 23,0 21,0 22 12 46 25 W 1024,3 45 0 0,0
23.09.2018 22:00:00 24,2 15,9 23,4 23,0 21,0 27 15 40 21 NW 1023,8 59 0 0,0
23.09.2018 21:00:00 25,7 15,4 24,3 23,0 21,0 18 10 33 18 WNW 1022,7 60 0 0,0
23.09.2018 20:00:00 26,6 15,9 25,0 22,9 21,0 14 7 36 19 W 1021,9 60 29 0,0
23.09.2018 19:00:00 28,1 15,0 29,6 22,8 21,0 25 13 42 23 NW 1021,5 41 60 0,0
23.09.2018 18:00:00 29,5 14,9 33,2 22,6 21,0 25 13 42 23 WNW 1020,8 36 60 0,0
23.09.2018 17:00:00 29,9 14,8 33,8 22,4 21,0 22 12 39 21 NW 1020,8 38 60 0,0
23.09.2018 16:00:00 29,5 14,5 35,2 22,1 21,0 21 12 35 19 WNW 1020,8 10 60 0,0
23.09.2018 15:00:00 28,8 15,3 36,1 21,8 21,0 11 6 27 15 WNW 1021,3 8 60 0,0
23.09.2018 14:00:00 27,7 15,7 34,8 21,6 21,0 10 5 22 12 W 1021,9 8 60 0,0
23.09.2018 13:00:00 26,6 15,6 33,0 21,5 21,0 7 4 21 11 NW 1022,7 5 60 0,0
23.09.2018 12:00:00 25,1 15,7 31,1 21,4 21,0 6 3 18 10 W 1023,5 59 60 0,0
23.09.2018 11:00:00 23,2 15,5 29,0 21,4 21,0 9 5 19 10 NNW 1023,9 54 60 0,0
23.09.2018 10:00:00 20,9 15,7 23,6 21,5 21,0 8 4 12 7 NNW 1023,9 20 60 0,0
23.09.2018 09:00:00 18,7 15,0 15,6 21,6 21,0 5 3 9 5 WNW 1023,8 43 57 0,0
23.09.2018 08:00:00 17,0 14,3 13,1 21,7 21,0 5 3 10 6 NW 1023,7 44 0 0,0
23.09.2018 07:00:00 16,1 13,9 13,3 21,8 21,0 5 3 10 5 SSE 1023,6 60 0 0,0
23.09.2018 06:00:00 16,1 14,3 13,7 21,9 21,0 6 3 13 7 S 1023,5 53 0 0,0
23.09.2018 05:00:00 16,4 14,4 13,9 22,1 21,0 8 4 14 8 S 1023,8 60 0 0,0
23.09.2018 04:00:00 16,8 14,4 13,8 22,2 21,0 8 5 11 6 S 1023,9 55 0 0,0
23.09.2018 03:00:00 17,3 14,6 14,6 22,3 21,0 8 4 11 6 S 1024,5 48 0 0,0
23.09.2018 02:00:00 18,1 14,4 14,8 22,4 21,0 4 2 13 7 SSW 1024,5 56 0 0,0
23.09.2018 01:00:00 18,3 13,8 15,0 22,6 21,0 9 5 14 8 S 1024,4 46 0 0,0
23.09.2018 00:00:00 20,1 12,8 15,2 22,6 21,0 8 4 9 5 NW 1024,1 44 0 0,0
22.09.2018 23:00:00 21,4 12,5 15,6 22,7 21,0 2 1 6 4 SSE 1023,9 49 0 0,0
22.09.2018 22:00:00 22,6 12,8 18,4 22,8 21,0 4 2 11 6 NNE 1023,5 57 0 0,0
22.09.2018 21:00:00 23,7 13,0 20,0 22,8 21,0 6 3 12 6 N 1023,2 60 0 0,0
22.09.2018 20:00:00 24,9 12,8 22,5 22,7 21,0 9 5 23 13 N 1022,6 60 28 0,0
22.09.2018 19:00:00 26,6 12,6 27,9 22,6 21,0 15 8 28 15 NW 1022,3 54 52 0,0
22.09.2018 18:00:00 27,3 12,5 31,8 22,5 21,0 15 8 32 18 NW 1022,2 39 60 0,0
22.09.2018 17:00:00 27,6 12,4 33,2 22,3 21,0 10 5 24 13 WSW 1022,1 20 60 0,0
22.09.2018 16:00:00 26,5 12,5 33,7 22,0 21,0 6 3 20 11 NW 1022,4 19 60 0,0
22.09.2018 15:00:00 25,8 13,0 32,4 21,8 21,0 8 4 22 12 W 1022,8 55 60 0,0
22.09.2018 14:00:00 23,5 12,5 30,5 21,6 21,0 8 4 21 12 NNW 1023,5 55 60 0,0
22.09.2018 13:00:00 22,4 12,9 30,2 21,5 21,0 5 3 18 10 NE 1024,0 18 60 0,0
22.09.2018 12:00:00 20,7 12,1 28,2 21,5 21,0 8 5 20 11 NW 1024,4 52 60 0,0
22.09.2018 11:00:00 19,7 12,2 25,7 21,5 21,0 4 2 13 7 NE 1024,4 44 60 0,0
22.09.2018 10:00:00 18,1 12,1 21,2 21,6 21,0 5 3 10 6 N 1024,4 35 60 0,0
22.09.2018 09:00:00 16,4 12,9 14,0 21,7 21,0 6 3 13 7 N 1024,2 40 55 0,0
22.09.2018 08:00:00 15,4 13,2 13,9 21,8 21,0 5 3 14 8 NNE 1024,2 42 0 0,0
22.09.2018 07:00:00 16,1 13,9 14,3 21,9 21,0 9 5 13 7 N 1023,8 48 0 0,0
22.09.2018 06:00:00 16,1 13,9 14,8 22,0 21,0 9 5 13 7 NW 1023,8 52 0 0,0
22.09.2018 05:00:00 16,6 13,7 15,5 22,1 21,0 4 2 11 6 N 1024,0 55 0 0,0
22.09.2018 04:00:00 17,0 13,7 16,8 22,2 21,0 6 4 22 12 N 1024,1 59 0 0,0
22.09.2018 03:00:00 17,4 13,7 16,8 22,3 21,0 16 9 21 12 NW 1024,7 60 0 0,0
22.09.2018 02:00:00 17,9 13,8 17,6 22,4 21,0 15 8 21 11 NW 1024,4 60 0 0,0
22.09.2018 01:00:00 17,8 14,1 17,4 22,4 21,0 11 6 16 9 WNW 1024,5 60 0 0,0
22.09.2018 00:00:00 17,6 14,9 16,8 22,5 21,0 9 5 17 9 WNW 1024,6 60 0 0,0
21.09.2018 23:00:00 17,8 15,1 17,2 22,6 21,0 15 8 30 16 NNW 1024,3 18 0 0,0
21.09.2018 22:00:00 18,2 15,1 18,1 22,6 21,0 20 11 39 21 NNW 1023,7 60 0 0,0
21.09.2018 21:00:00 20,4 15,6 19,8 22,6 20,9 22 12 45 24 NNW 1022,6 60 0 0,0
21.09.2018 20:00:00 21,5 15,6 21,0 22,6 21,0 27 15 51 27 NNW 1021,9 60 0 0,0
21.09.2018 19:00:00 25,2 14,0 25,1 22,6 21,0 23 12 40 21 WNW 1020,2 41 6 0,0
21.09.2018 18:00:00 26,4 13,5 28,1 22,4 20,9 26 14 44 24 WNW 1020,0 19 45 0,0
21.09.2018 17:00:00 27,0 13,7 28,7 22,3 21,0 27 14 42 23 NW 1019,3 20 40 0,0
21.09.2018 16:00:00 26,5 12,9 29,8 22,2 21,0 22 12 35 19 WNW 1018,9 40 36 0,0
21.09.2018 15:00:00 26,5 13,9 28,4 22,0 21,0 16 9 31 17 WNW 1019,3 34 34 0,0
21.09.2018 14:00:00 25,0 14,5 29,4 21,9 21,0 19 10 35 19 WNW 1020,1 45 37 0,0
21.09.2018 13:00:00 24,2 15,1 27,3 21,8 20,9 11 6 28 15 W 1020,5 20 33 0,0
21.09.2018 12:00:00 22,9 15,7 26,0 21,8 21,0 13 7 28 15 W 1020,6 23 20 0,0
21.09.2018 11:00:00 22,1 15,4 24,6 21,8 20,9 13 7 24 13 NW 1020,4 28 44 0,0
21.09.2018 10:00:00 20,1 15,7 19,6 21,9 21,0 10 5 22 12 W 1019,8 25 3 0,0
21.09.2018 09:00:00 18,9 15,9 17,4 22,1 21,0 13 7 22 12 W 1019,3 19 13 0,0
21.09.2018 08:00:00 17,9 15,9 17,1 22,1 20,9 15 8 24 13 W 1018,6 15 0 0,0
21.09.2018 07:00:00 18,2 16,0 17,1 22,2 20,9 17 9 28 15 W 1017,8 15 0 0,0
21.09.2018 06:00:00 18,6 16,0 17,0 22,3 20,9 13 7 19 10 W 1016,9 18 0 0,0
21.09.2018 05:00:00 19,0 16,0 15,2 22,5 20,9 12 7 26 14 WNW 1016,7 21 0 0,0
21.09.2018 04:00:00 17,7 14,4 14,1 22,6 21,0 7 4 14 7 SSW 1016,5 31 0 0,0
21.09.2018 03:00:00 17,9 13,8 14,2 22,8 20,9 8 4 11 6 S 1016,1 31 0 0,0
21.09.2018 02:00:00 19,3 13,7 15,2 22,9 20,9 7 4 11 6 SSW 1016,1 34 0 0,0
21.09.2018 01:00:00 19,9 14,0 16,2 23,0 20,9 7 4 18 10 SE 1015,9 33 0 0,0
21.09.2018 00:00:00 21,0 13,9 15,9 23,2 21,0 6 3 13 7 S 1015,9 30 0 0,0
20.09.2018 23:00:00 22,5 13,6 16,8 23,2 20,9 6 4 9 5 SSE 1015,8 31 0 0,0
20.09.2018 22:00:00 24,9 12,8 18,9 23,3 20,9 8 4 11 6 SW 1015,8 43 0 0,0
20.09.2018 21:00:00 26,9 12,2 20,6 23,4 21,0 7 4 17 9 SW 1015,5 46 0 0,0
20.09.2018 20:00:00 28,6 11,6 22,3 23,3 20,9 6 4 11 6 S 1015,2 50 34 0,0
20.09.2018 19:00:00 31,1 9,9 34,3 23,1 20,9 4 2 13 7 SSE 1015,1 44 60 0,0
20.09.2018 18:00:00 31,9 11,1 38,5 23,0 21,0 6 3 13 7 SE 1015,2 46 60 0,0
20.09.2018 17:00:00 31,9 10,6 39,5 22,6 20,9 7 4 15 8 NE 1015,8 52 60 0,0
20.09.2018 16:00:00 31,4 12,2 39,8 22,4 20,9 9 5 17 9 ESE 1016,5 20 60 0,0
20.09.2018 15:00:00 30,4 15,3 37,7 22,1 20,9 8 4 18 10 E 1017,4 37 60 0,0
20.09.2018 14:00:00 29,0 16,5 35,8 21,9 20,9 9 5 19 10 E 1018,3 28 60 0,0
20.09.2018 13:00:00 27,5 16,8 33,5 21,7 20,9 6 3 16 8 ESE 1019,2 19 60 0,0
20.09.2018 12:00:00 25,7 17,1 31,7 21,7 21,0 5 3 15 8 E 1020,0 19 60 0,0
20.09.2018 11:00:00 23,1 16,9 28,3 21,7 20,9 4 2 10 5 SSW 1020,7 11 60 0,0
20.09.2018 10:00:00 20,9 16,5 23,2 21,8 20,9 4 2 31 17 NW 1021,0 18 60 0,0
20.09.2018 09:00:00 18,1 16,3 15,3 21,9 21,0 4 2 10 5 SSW 1020,9 15 60 0,0
20.09.2018 08:00:00 16,3 15,3 13,3 22,0 20,9 8 4 10 5 S 1021,0 12 0 0,0
20.09.2018 07:00:00 16,3 15,2 13,6 22,1 20,9 6 4 13 7 S 1020,9 10 0 0,0
20.09.2018 06:00:00 16,8 15,3 13,3 22,3 20,9 9 5 12 7 S 1020,7 14 0 0,0
20.09.2018 05:00:00 16,7 15,1 14,1 22,4 20,9 6 3 12 7 S 1020,9 16 0 0,0
20.09.2018 04:00:00 17,5 15,3 15,2 22,5 20,9 6 3 16 9 SSW 1020,9 19 0 0,0
20.09.2018 03:00:00 18,4 16,0 15,7 22,6 20,9 9 5 13 7 SSW 1020,8 22 0 0,0
20.09.2018 02:00:00 18,7 15,9 15,7 22,7 20,9 7 4 11 6 S 1020,9 22 0 0,0
20.09.2018 01:00:00 19,6 15,5 15,7 22,9 20,9 7 4 10 6 S 1021,1 29 0 0,0
20.09.2018 00:00:00 20,6 14,9 16,2 23,0 20,9 6 3 8 4 S 1021,0 32 0 0,0
19.09.2018 23:00:00 21,6 15,0 18,0 23,1 20,9 6 3 13 7 SSW 1020,7 29 0 0,0
19.09.2018 22:00:00 24,4 14,8 19,8 23,1 20,9 6 3 16 9 WNW 1020,3 31 0 0,0
19.09.2018 21:00:00 25,4 14,5 22,4 23,1 20,9 10 5 15 8 NW 1019,7 39 0 0,0
19.09.2018 20:00:00 26,8 14,5 23,5 23,1 20,9 8 5 22 12 WNW 1019,3 20 36 0,0
19.09.2018 19:00:00 28,9 14,3 32,0 22,9 20,9 8 4 16 9 NNW 1019,2 26 60 0,0
19.09.2018 18:00:00 29,4 14,8 36,9 22,7 20,9 6 4 17 9 N 1018,9 38 60 0,0
19.09.2018 17:00:00 29,5 14,9 37,0 22,4 20,9 6 4 19 10 NE 1019,1 31 60 0,0
19.09.2018 16:00:00 29,0 14,8 37,0 22,2 20,9 7 4 18 10 NNW 1019,6 23 60 0,0
19.09.2018 15:00:00 27,8 16,1 35,3 22,0 20,9 6 3 14 8 E 1020,1 15 60 0,0
19.09.2018 14:00:00 25,5 17,2 32,6 21,8 20,9 4 2 17 9 NE 1020,7 14 60 0,0
19.09.2018 13:00:00 23,6 17,6 26,8 21,8 20,9 5 3 16 9 ESE 1021,5 13 47 0,0
19.09.2018 12:00:00 21,0 17,4 22,2 21,7 20,9 3 2 12 7 W 1022,2 13 0 0,0

tt = temperature
td = dewpoint
tt 5cm = temperature 5cm
tt -20cm = temperature -20cm
tt -100cm = temperature -100cm
ff = wind speed
fx = gusts
dd = wind direction
ppp = reduced air pressure
vv = visibility
sd = sunshine duration
rr = precipitation

Next stations